Location: Dackenheim
(49.5215°N, 8.1854°E)
Time: 12:59:10
(UTC+00:00)

BlueWalker 3 - Pass Details

Date: 21 January 2026
Orbit: 451 x 460 km, 53.2° (Epoch: 17 February)

Event Time Altitude Azimuth Distance (km) Brightness Sun altitude
Rises 17:20:37 0° 191° (SSW) 2,444 5.8 -12.1°
Reaches altitude 10° 17:23:32 10° 165° (SSE) 1,576 4.5 -12.5°
Maximum altitude 17:25:24 14° 133° (SE) 1,363 3.8 -12.8°
Enters shadow 17:26:06 13° 120° (ESE) 1,396 3.8 -12.9°
